Regional Weather Roundup
Issued by NWS

Home | Current Version | Previous Version | Graphics & Text | Print | Product List | Glossary On
Versions: 1 2 3 4 5 6 7 8 9 10 11 12 13 14 15 16 17 18 19 20 21 22 23 24 25 26 27 28 29 30 31 32 33 34 35 36 37 38 39 40 41 42 43 44 45 46 47 48 49 50
730
ASUS45 KPSR 261810
RWRAZ

ARIZONA HOURLY REGIONAL WEATHER ROUNDUP
NATIONAL WEATHER SERVICE PHOENIX AZ
1100 AM MST THU APR 26 2018

NOTE: FAIR INDICATES FEW OR NO CLOUDS BELOW 12,000 FEET WITH NO
SIGNIFICANT WEATHER AND/OR OBSTRUCTIONS TO VISIBILITY.

AZZ001>003-036-261900-
NORTHWEST ARIZONA

CITY           SKY/WX    TMP DP  RH WIND       PRES   REMARKS
BULLHEAD CITY  SUNNY     90  23   9 CALM      29.86F
KINGMAN        SUNNY     88  22   9 N7        30.01F
6HR MIN TEMP:  52; 6HR MAX TEMP:  88;

$$

AZZ004>008-015-016-018-261900-
NORTH CENTRAL ARIZONA

CITY           SKY/WX    TMP DP  RH WIND       PRES   REMARKS
GRAND CANYON   SUNNY     71  17  12 NE15      30.22S
6HR MIN TEMP:  30; 6HR MAX TEMP:  72;

WILLIAMS       SUNNY     73  14  10 VRB6G13   30.18S
PRESCOTT       SUNNY     80  21  11 VRB7      30.09F
6HR MIN TEMP:  50; 6HR MAX TEMP:  80;

FLAGSTAFF      SUNNY     71  21  15 VRB7G17   30.22S
6HR MIN TEMP:  31; 6HR MAX TEMP:  71;

PAYSON         SUNNY     79  18  10 CALM      30.10F
PAGE           SUNNY     75  18  11 NE8       30.12S
6HR MIN TEMP:  55; 6HR MAX TEMP:  75;

$$

AZZ009>014-017-261900-
NORTHEAST ARIZONA

CITY           SKY/WX    TMP DP  RH WIND       PRES   REMARKS
WINSLOW        SUNNY     77   8   7 NE5       30.13S
6HR MIN TEMP:  40; 6HR MAX TEMP:  77;

SAINT JOHNS    SUNNY     76  12   8 NW6       30.14S
6HR MIN TEMP:  41; 6HR MAX TEMP:  76;

WINDOW ROCK    SUNNY     73  14  10 N13G26    30.18F
6HR MIN TEMP:  30; 6HR MAX TEMP:  74;

SHOW LOW       SUNNY     73  14  10 NW14      30.19S
$$

AZZ540-542>544-546-548-261900-
GREATER PHOENIX AREA

CITY           SKY/WX    TMP DP  RH WIND       PRES   REMARKS
PHOENIX        PTSUNNY   87  31  13 SE6       29.88F
6HR MIN TEMP:  70; 6HR MAX TEMP:  87;

BUCKEYE        MOSUNNY   86  37  17 S6        29.89F
GLENDALE       PTSUNNY   88  34  14 S12       29.90F
DEER VALLEY    PTSUNNY   85  30  13 S8        29.90F
6HR MIN TEMP:  66; 6HR MAX TEMP:  86;

SCOTTSDALE     MOSUNNY   86  33  15 SW6       29.92S
6HR MIN TEMP:  67; 6HR MAX TEMP:  86;

MESA-FALCON    PTSUNNY   86  32  14 VRB3      29.91F
CHANDLER       PTSUNNY   86  36  16 VRB5      29.90S
$$

AZZ539-553-261900-
SOUTHWEST MARICOPA COUNTY AND PINAL COUNTY

CITY           SKY/WX    TMP DP  RH WIND       PRES   REMARKS
CASA GRANDE    PTSUNNY   87  32  14 S8        29.92S
6HR MIN TEMP:  61; 6HR MAX TEMP:  88;

GILA BEND      PTSUNNY   90  30  12 W9        29.88S
6HR MIN TEMP:  69; 6HR MAX TEMP:  90;

$$

AZZ503-504-507>509-261900-
SOUTHEAST ARIZONA

CITY           SKY/WX    TMP DP  RH WIND       PRES   REMARKS
TUCSON         PTSUNNY   84  25  11 CALM      30.00S
6HR MIN TEMP:  63; 6HR MAX TEMP:  84;

DAVIS-MONTHAN  CLOUDY    86  29  13 SW5       29.98
6HR MIN TEMP:  60; 6HR MAX TEMP:  86;

RYAN FIELD     SUNNY     84  28  13 SW3       29.98F
NOGALES        MOSUNNY   81  31  16 VRB3      30.06F
6HR MIN TEMP:  53; 6HR MAX TEMP:  82;

DOUGLAS        MOSUNNY   81  24  12 VRB3      30.06F
6HR MIN TEMP:  53; 6HR MAX TEMP:  81;

SAFFORD        MOSUNNY   85  18   8 NW5       29.97F
6HR MIN TEMP:  53; 6HR MAX TEMP:  85;

$$

AZZ532-261900-
SOUTHWEST ARIZONA

CITY           SKY/WX    TMP DP  RH WIND       PRES   REMARKS
YUMA           PTSUNNY   87  41  19 W10       29.87S
6HR MIN TEMP:  70; 6HR MAX TEMP:  87;

$$

CAZ041-043-047-048-061-525>527-560>570-261900-
SOUTHERN CALIFORNIA

CITY           SKY/WX    TMP DP  RH WIND       PRES   REMARKS
DOWNTOWN L.A.  SUNNY     66  51  58 CALM      30.04S
6HR MIN TEMP:  55; 6HR MAX TEMP:  67;

L.A. AIRPORT   MOSUNNY   62  51  67 W5        30.05S
6HR MIN TEMP:  56; 6HR MAX TEMP:  62;

SAN DIEGO      PTSUNNY   65  51  60 VRB7      30.06S
6HR MIN TEMP:  58; 6HR MAX TEMP:  66;

BURBANK        SUNNY     64  52  64 S6        30.03S
6HR MIN TEMP:  53; 6HR MAX TEMP:  64;

ONTARIO        SUNNY     67  48  50 VRB3      30.03S
6HR MIN TEMP:  52; 6HR MAX TEMP:  67;

RIVERSIDE      SUNNY     67  49  52 NW5       30.03S
6HR MIN TEMP:  52; 6HR MAX TEMP:  67;

PALM SPRINGS   SUNNY     92  28  10 N8        29.87S
6HR MIN TEMP:  67; 6HR MAX TEMP:  93;

EL CENTRO NAS  PTSUNNY   87  36  16 SE7       29.86S
6HR MIN TEMP:  71; 6HR MAX TEMP:  88;

IMPERIAL       MOSUNNY   89  38  16 CALM      29.85S
6HR MIN TEMP:  72; 6HR MAX TEMP:  90;

BLYTHE         MOSUNNY   89  30  12 CALM      29.86S
6HR MIN TEMP:  66; 6HR MAX TEMP:  90;

NEEDLES        SUNNY     92  20   7 VRB5      29.87F
6HR MIN TEMP:  72; 6HR MAX TEMP:  92;

$$

NVZ020-UTZ003-261900-
SOUTHERN NEVADA-UTAH

CITY           SKY/WX    TMP DP  RH WIND       PRES   REMARKS
LAS VEGAS      MOSUNNY   88  23   9 NE7       29.95F
6HR MIN TEMP:  69; 6HR MAX TEMP:  88;

SALT LAKE CITY SUNNY     69  35  28 NW12      30.18F
6HR MIN TEMP:  47; 6HR MAX TEMP:  69;

$$

NMZ009-TXZ055-261900-
NEW MEXICO-WEST TEXAS

CITY           SKY/WX    TMP DP  RH WIND       PRES   REMARKS
ALBUQUERQUE    MOSUNNY   72  17  12 NW9       30.09F
6HR MIN TEMP:  45; 6HR MAX TEMP:  72;

EL PASO        PTSUNNY   74  37  26 CALM      30.04F
6HR MIN TEMP:  52; 6HR MAX TEMP:  74;

$$


........................KEY........................
SKY/WX - SKY CONDITION/WEATHER
TMP    - TEMPERATURE IN FAHRENHEIT
DP     - DEW POINT IN FAHRENHEIT
RH     - RELATIVE HUMIDITY IN PERCENT
WIND   - DIRECTION AND SPEED IN MILES PER HOUR (MPH)
VRB    - VARIABLE WIND DIRECTION
PRES   - MEAN SEA LEVEL PRESSURE IN INCHES OF MERCURY
         F - FALLING PRESSURE   R - RISING PRESSURE
         S - STEADY PRESSURE
VSB    - VISIBILITY IN MILES
HX     - HEAT INDEX IN FAHRENHEIT
WCI    - WIND CHILL INDEX IN FAHRENHEIT
TC     - TEMPERATURE IN CELSIUS WHICH IS ALSO KNOWN AS
         TEMPERATURE IN CENTIGRADE
AFB    - AIR FORCE BASE
         LUKE AFB IS LUKE AIR FORCE BASE
         DAVIS-MONTHAN IS DAVIS-MONTHAN AIR FORCE BASE
NAS    - NAVAL AIR STATION
         EL CENTRO NAS IS EL CENTRO NAVAL AIR STATION
N/A    - NOT AVAILABLE





USA.gov is the U.S. government's official web portal to all federal, state and local government web resources and services.